Location: Bullfrog
(37.5121°N, 110.7330°W)
Time: 17:27:38
(UTC-07:00)

ISS - Visible Passes

Search period start: 24 January 2026 00:00
Search period end: 03 February 2026 00:00
Orbit: 413 x 423 km, 51.6° (Epoch: 23 January)

Date Brightness Start Highest point End Pass type
(mag) Time Alt. Az. Time Alt. Az. Time Alt. Az.
24 Jan -1.3 19:17:18 10° NNW 19:18:07 14° N 19:18:07 14° N visible
25 Jan -1.6 18:29:42 10° N 18:31:19 13° NNE 18:32:18 12° NE visible
26 Jan -2.5 19:17:21 10° NW 19:19:31 29° N 19:19:31 29° N visible
27 Jan -2.4 18:29:28 10° NNW 18:32:14 23° NNE 18:33:55 16° ENE visible
27 Jan -0.8 20:05:57 10° WNW 20:06:52 17° WNW 20:06:52 17° WNW visible
28 Jan -3.7 19:17:40 10° NW 19:20:59 74° SW 19:21:29 59° SSE visible
29 Jan -3.7 18:29:30 10° NW 18:32:48 59° NE 18:36:06 10° ESE visible
29 Jan -0.6 20:07:46 10° WSW 20:09:11 12° SW 20:09:20 12° SW visible
30 Jan -1.3 19:18:30 10° WNW 19:21:08 22° SW 19:23:46 10° S visible
31 Jan -2.3 18:29:52 10° WNW 18:33:00 40° SW 18:36:09 10° SSE visible
2 Feb -0.5 18:31:15 10° W 18:32:52 13° SW 18:34:28 10° SSW visible
